Sydney, Australia

3:43 PM AEDT on January 18, 2017 (GMT +1100)
Kingsford Smith International

Weather History for YSSY - December, 2013

Change the Weather History Date:

Sunday, December 1, 2013

  Actual Average Record
Temperature  
Mean Temperature 64 °F -  
Max Temperature 71 °F 79 °F 107 °F (2004)
Min Temperature 57 °F 64 °F 57 °F (2000)
Degree Days  
Heating Degree Days 1    
Growing Degree Days 14 (Base 50)    
Moisture  
Dew Point 53 °F    
Average Humidity 62    
Maximum Humidity 82    
Minimum Humidity 35    
Precipitation  
Precipitation 0.00 in 0.11 in - ()
Sea Level Pressure  
Sea Level Pressure 30.24 in    
Wind  
Wind Speed 9 mph ()    
Max Wind Speed 17 mph    
Max Gust Speed -    
Visibility 8.0 miles    
Events Rain    
Averages and records for this station are not official NWS values.
T = Trace of Precipitation, MM = Missing Value Source: Averaged Metar Reports

Daily Weather History Graph

Daily Weather History Graph

Search for Another Location

Airport or City:

Trip Planner

Search our weather history database for the weather conditions in past years. The results will help you decide how hot, cold, wet, or windy it might be!

Date:

Astronomy

Dec. 01, 2013 Rise Set
Actual Time 5:37 AM AEDT 7:51 PM AEDT
Civil Twilight 5:08 AM AEDT 8:20 PM AEDT
Nautical Twilight 4:33 AM AEDT 8:55 PM AEDT
Astronomical Twilight 3:55 AM AEDT 9:33 PM AEDT
Moon 3:59 AM AEDT (12/1) 5:51 PM AEDT (12/1)
Length of Visible Light 15h 11m
Length of Day
14h 14m
Waning Crescent, 5% of the Moon is Illuminated
Dec 1
Waning Crescent
Dec 3
New
Dec 10
First Quarter
Dec 17
Full
Dec 26
Last Quarter

Hourly Weather History & Observations

Time (AEDT) Temp. Dew Point Humidity Pressure Visibility Wind Dir Wind Speed Gust Speed Precip Events Conditions
12:00 AM 64 °F 52 °F 55% 30.24 in 19 mi SE 10.4 mph - -   Partly Cloudy
12:00 AM 64.4 °F 51.8 °F 64% 30.21 in 6.2 mi SE 10.4 mph - N/A   Partly Cloudy
12:30 AM 62.6 °F 51.8 °F 68% 30.21 in 6.2 mi SE 8.1 mph - N/A   Partly Cloudy
1:00 AM 62 °F 52 °F 61% 30.24 in - East 8.1 mph - -  
1:00 AM 62.6 °F 51.8 °F 68% 30.21 in 6.2 mi East 8.1 mph - N/A   Partly Cloudy
1:30 AM 62.6 °F 53.6 °F 72% 30.21 in 6.2 mi East 6.9 mph - N/A   Partly Cloudy
2:00 AM 61 °F 53 °F 68% 30.22 in - East 4.6 mph - -  
2:00 AM 60.8 °F 53.6 °F 77% 30.21 in 6.2 mi East 4.6 mph - N/A   Partly Cloudy
2:30 AM 60.8 °F 53.6 °F 77% 30.18 in 6.2 mi North 3.5 mph - N/A   Partly Cloudy
3:00 AM 59 °F 53 °F 75% 30.21 in 19 mi NW 6.9 mph - -   Partly Cloudy
3:00 AM 59.0 °F 53.6 °F 82% 30.18 in 6.2 mi NW 6.9 mph - N/A   Partly Cloudy
3:30 AM 60.8 °F 53.6 °F 77% 30.18 in 6.2 mi NW 5.8 mph - N/A   Partly Cloudy
4:00 AM 59 °F 53 °F 75% 30.21 in - NNW 6.9 mph - -  
4:00 AM 59.0 °F 53.6 °F 82% 30.18 in 6.2 mi NNW 6.9 mph - N/A   Partly Cloudy
4:30 AM 59.0 °F 53.6 °F 82% 30.21 in 6.2 mi NNW 4.6 mph - N/A   Partly Cloudy
5:00 AM 58 °F 53 °F 77% 30.22 in - WNW 4.6 mph - -  
5:00 AM 59.0 °F 53.6 °F 82% 30.21 in 6.2 mi WNW 4.6 mph - N/A   Partly Cloudy
5:30 AM 59.0 °F 53.6 °F 82% 30.21 in 6.2 mi WSW 6.9 mph - N/A   Partly Cloudy
6:00 AM 59 °F 53 °F 73% 30.24 in 19 mi West 6.9 mph - -   Partly Cloudy
6:00 AM 59.0 °F 51.8 °F 77% 30.21 in 6.2 mi WSW 6.9 mph - N/A   Scattered Clouds
6:30 AM 60.8 °F 53.6 °F 77% 30.24 in 6.2 mi North 1.2 mph - N/A Rain Light Rain Showers
7:00 AM 60 °F 53 °F 71% 30.24 in - NW 5.8 mph - -  
7:00 AM 60.8 °F 53.6 °F 77% 30.24 in 6.2 mi NW 5.8 mph - N/A   Partly Cloudy
7:30 AM 62.6 °F 53.6 °F 72% 30.24 in 6.2 mi West 6.9 mph - N/A   Partly Cloudy
8:00 AM 65 °F 56 °F 64% 30.25 in - SW 10.4 mph - -  
8:00 AM 64.4 °F 55.4 °F 73% 30.24 in 6.2 mi SW 10.4 mph - N/A   Partly Cloudy
8:30 AM 66.2 °F 55.4 °F 68% 30.24 in 6.2 mi SW 8.1 mph - N/A   Partly Cloudy
9:00 AM 67 °F 55 °F 56% 30.27 in 19 mi SSE 6.9 mph - -   Partly Cloudy
9:00 AM 66.2 °F 55.4 °F 68% 30.27 in 6.2 mi SSE 6.9 mph - N/A   Scattered Clouds
9:30 AM 68.0 °F 57.2 °F 68% 30.27 in 6.2 mi South 10.4 mph - N/A   Scattered Clouds
10:00 AM 68 °F 55 °F 53% 30.27 in - South 11.5 mph - -  
10:00 AM 68.0 °F 55.4 °F 64% 30.27 in 6.2 mi South 11.5 mph - N/A   Mostly Cloudy
10:30 AM 68.0 °F 55.4 °F 64% 30.27 in 6.2 mi South 12.7 mph - N/A   Mostly Cloudy
11:00 AM 67 °F 56 °F 58% 30.29 in - SE 17.3 mph - -  
11:00 AM 68.0 °F 55.4 °F 64% 30.27 in 6.2 mi SE 17.3 mph - N/A   Mostly Cloudy
11:30 AM 68.0 °F 55.4 °F 64% 30.27 in 6.2 mi SE 17.3 mph - N/A   Mostly Cloudy
12:00 PM 69 °F 54 °F 50% 30.30 in 19 mi SE 17.3 mph - -   Mostly Cloudy
12:00 PM 69.8 °F 55.4 °F 60% 30.27 in 6.2 mi SE 17.3 mph - N/A   Mostly Cloudy
12:30 PM 68.0 °F 53.6 °F 60% 30.27 in 6.2 mi ESE 16.1 mph - N/A   Mostly Cloudy
1:00 PM 69 °F 55 °F 51% 30.29 in - SE 13.8 mph - -  
1:00 PM 68.0 °F 55.4 °F 64% 30.27 in 6.2 mi SE 13.8 mph - N/A   Mostly Cloudy
1:30 PM 69.8 °F 53.6 °F 56% 30.27 in 6.2 mi SE 11.5 mph - N/A   Mostly Cloudy
2:00 PM 69 °F 53 °F 47% 30.27 in - East 12.7 mph - -  
2:00 PM 69.8 °F 53.6 °F 56% 30.24 in 6.2 mi East 12.7 mph - N/A   Mostly Cloudy
2:30 PM 69.8 °F 50.0 °F 49% 30.24 in 6.2 mi East 12.7 mph - N/A   Scattered Clouds
3:00 PM 70 °F 49 °F 35% 30.25 in 19 mi East 10.4 mph - -   Partly Cloudy
3:00 PM 69.8 °F 48.2 °F 46% 30.24 in 6.2 mi East 10.4 mph - N/A   Scattered Clouds
3:30 PM 69.8 °F 50.0 °F 49% 30.24 in 6.2 mi East 8.1 mph - N/A   Scattered Clouds
4:00 PM 71 °F 51 °F 38% 30.24 in - ESE 8.1 mph - -  
4:00 PM 69.8 °F 51.8 °F 53% 30.24 in 6.2 mi ESE 8.1 mph - N/A   Scattered Clouds
4:30 PM 69.8 °F 51.8 °F 53% 30.21 in 6.2 mi ENE 13.8 mph - N/A   Partly Cloudy
5:00 PM 69 °F 53 °F 46% 30.23 in - East 16.1 mph - -  
5:00 PM 69.8 °F 53.6 °F 56% 30.21 in 6.2 mi East 16.1 mph - N/A   Partly Cloudy
5:30 PM 69.8 °F 53.6 °F 56% 30.21 in 6.2 mi East 15.0 mph - N/A   Partly Cloudy
6:00 PM 70 °F 53 °F 44% 30.22 in 19 mi East 16.1 mph - -   Partly Cloudy
6:00 PM 69.8 °F 53.6 °F 56% 30.21 in 6.2 mi East 16.1 mph - N/A   Partly Cloudy
6:30 PM 68.0 °F 51.8 °F 56% 30.21 in 6.2 mi East 15.0 mph - N/A   Scattered Clouds
7:00 PM 68 °F 51 °F 45% 30.24 in - ENE 11.5 mph - -  
7:00 PM 68.0 °F 51.8 °F 56% 30.24 in 6.2 mi ENE 11.5 mph - N/A   Scattered Clouds
7:30 PM 68.0 °F 51.8 °F 56% 30.24 in 6.2 mi NE 11.5 mph - N/A   Partly Cloudy
8:00 PM 67 °F 52 °F 48% 30.25 in - ENE 10.4 mph - -  
8:00 PM 66.2 °F 51.8 °F 60% 30.24 in 6.2 mi ENE 10.4 mph - N/A   Partly Cloudy
8:30 PM 66.2 °F 51.8 °F 60% 30.24 in 6.2 mi ENE 10.4 mph - N/A   Partly Cloudy
9:00 PM 66 °F 53 °F 52% 30.26 in 19 mi ENE 10.4 mph - -   Partly Cloudy
9:00 PM 66.2 °F 51.8 °F 60% 30.24 in 6.2 mi ENE 10.4 mph - N/A   Partly Cloudy
9:30 PM 66.2 °F 51.8 °F 60% 30.24 in 6.2 mi NE 10.4 mph - N/A   Partly Cloudy
10:00 PM 66 °F 53 °F 53% 30.27 in - NE 9.2 mph - -  
10:00 PM 66.2 °F 53.6 °F 64% 30.24 in 6.2 mi NE 9.2 mph - N/A   Partly Cloudy
10:30 PM 66.2 °F 51.8 °F 60% 30.24 in 6.2 mi NE 8.1 mph - N/A   Partly Cloudy
11:00 PM 66 °F 52 °F 50% 30.27 in - NE 5.8 mph - -  
11:00 PM 66.2 °F 51.8 °F 60% 30.24 in 6.2 mi NE 5.8 mph - N/A   Scattered Clouds
11:30 PM 66.2 °F 51.8 °F 60% 30.24 in 6.2 mi NNE 5.8 mph - N/A   Scattered Clouds